Time,TemperatureF,DewpointF,PressureIn,WindDirection,WindDirectionDegrees,WindSpeedMPH,WindSpeedGustMPH,Humidity,HourlyPrecipIn,Conditions,Clouds,dailyrainin,SolarRadiationWatts/m^2,SoftwareType,DateUTC
2013-02-17 00:04:00,35.5,13.5,31.75,South,180,0.0,0.0,40,0.00,SCT,,0.00,0.0,WeatherDisplay:10.37,2013-02-17 07:04:00,
2013-02-17 00:09:00,35.5,13.5,31.75,South,180,0.0,0.0,40,0.00,SCT,,0.00,0.0,WeatherDisplay:10.37,2013-02-17 07:09:00,
2013-02-17 00:19:00,35.5,13.5,31.75,South,180,0.0,0.0,40,0.00,SCT,,0.00,0.0,WeatherDisplay:10.37,2013-02-17 07:19:00,
2013-02-17 00:29:00,35.5,13.5,31.75,South,180,0.0,0.0,40,0.00,SCT,,0.00,0.0,WeatherDisplay:10.37,2013-02-17 07:29:00,
2013-02-17 00:39:00,33.8,13.1,31.74,South,180,0.0,2.0,42,0.00,SCT,,0.00,0.0,WeatherDisplay:10.37,2013-02-17 07:39:00,
2013-02-17 00:44:00,33.2,13.1,31.74,South,182,0.0,1.0,43,0.00,SCT,,0.00,0.0,WeatherDisplay:10.37,2013-02-17 07:44:00,
2013-02-17 00:49:00,33.0,12.9,31.74,South,182,0.0,0.0,43,0.00,SCT,,0.00,0.0,WeatherDisplay:10.37,2013-02-17 07:49:00,
2013-02-17 00:59:00,32.7,11.6,31.68,South,185,1.0,5.0,41,0.00,SCT,,0.00,0.0,WeatherDisplay:10.37,2013-02-17 07:59:00,
2013-02-17 01:04:00,32.8,9.9,31.68,SW,220,1.0,3.0,38,0.00,SCT,,0.00,0.0,WeatherDisplay:10.37,2013-02-17 08:04:00,
2013-02-17 01:09:00,32.8,9.9,31.68,WSW,241,1.0,3.0,38,0.00,SCT,,0.00,0.0,WeatherDisplay:10.37,2013-02-17 08:09:00,
2013-02-17 01:14:00,32.8,9.9,31.68,WSW,241,1.0,3.0,38,0.00,SCT,,0.00,0.0,WeatherDisplay:10.37,2013-02-17 08:14:00,
2013-02-17 01:19:00,35.2,9.6,31.73,West,263,3.0,7.0,34,0.00,SCT,,0.00,0.0,WeatherDisplay:10.37,2013-02-17 08:19:00,
2013-02-17 01:24:00,36.7,11.6,31.74,SW,225,1.0,6.0,35,0.00,SCT,,0.00,0.0,WeatherDisplay:10.37,2013-02-17 08:24:00,
2013-02-17 01:29:00,37.2,13.9,31.74,SSW,202,1.0,5.0,38,0.00,SCT,,0.00,0.0,WeatherDisplay:10.37,2013-02-17 08:29:00,
2013-02-17 01:34:00,37.4,12.2,31.74,SSW,202,0.0,3.0,35,0.00,BKN,,0.00,0.0,WeatherDisplay:10.37,2013-02-17 08:34:00,
2013-02-17 01:39:00,37.5,11.6,31.74,SSW,202,0.0,2.0,34,0.00,BKN,,0.00,0.0,WeatherDisplay:10.37,2013-02-17 08:39:00,
2013-02-17 01:44:00,37.5,11.0,31.74,SSW,202,0.0,0.0,33,0.00,BKN,,0.00,0.0,WeatherDisplay:10.37,2013-02-17 08:44:00,
2013-02-17 01:49:00,37.5,11.0,31.74,SSW,202,0.0,0.0,33,0.00,BKN,,0.00,0.0,WeatherDisplay:10.37,2013-02-17 08:49:00,
2013-02-17 01:54:00,37.5,11.0,31.74,SSW,202,0.0,0.0,33,0.00,BKN,,0.00,0.0,WeatherDisplay:10.37,2013-02-17 08:54:00,
2013-02-17 01:59:00,37.5,11.0,31.74,SSW,202,0.0,0.0,33,0.00,BKN,,0.00,0.0,WeatherDisplay:10.37,2013-02-17 08:59:00,
2013-02-17 02:04:00,36.6,13.9,31.73,SSW,198,1.0,4.0,39,0.00,BKN,,0.00,0.0,WeatherDisplay:10.37,2013-02-17 09:04:00,
2013-02-17 02:09:00,36.1,14.1,31.73,SSE,164,2.0,6.0,40,0.00,BKN,,0.00,0.0,WeatherDisplay:10.37,2013-02-17 09:09:00,
2013-02-17 02:14:00,35.8,13.8,31.73,SSE,155,2.0,4.0,40,0.00,BKN,,0.00,0.0,WeatherDisplay:10.37,2013-02-17 09:14:00,
2013-02-17 02:19:00,35.4,13.4,31.73,SSE,156,2.0,4.0,40,0.00,BKN,,0.00,0.0,WeatherDisplay:10.37,2013-02-17 09:19:00,
2013-02-17 02:24:00,35.2,13.8,31.73,SSE,156,2.0,3.0,41,0.00,BKN,,0.00,0.0,WeatherDisplay:10.37,2013-02-17 09:24:00,
2013-02-17 02:29:00,35.2,13.8,31.73,SSE,156,2.0,2.0,41,0.00,BKN,,0.00,0.0,WeatherDisplay:10.37,2013-02-17 09:29:00,
2013-02-17 02:34:00,35.2,13.8,31.73,SSE,156,2.0,2.0,41,0.00,BKN,,0.00,0.0,WeatherDisplay:10.37,2013-02-17 09:34:00,
2013-02-17 02:39:00,35.2,13.8,31.73,SSE,156,2.0,2.0,41,0.00,BKN,,0.00,0.0,WeatherDisplay:10.37,2013-02-17 09:39:00,
2013-02-17 02:44:00,35.2,13.8,31.73,SSE,156,2.0,2.0,41,0.00,BKN,,0.00,0.0,WeatherDisplay:10.37,2013-02-17 09:44:00,
2013-02-17 02:49:00,35.2,13.8,31.73,SSE,156,2.0,2.0,41,0.00,BKN,,0.00,0.0,WeatherDisplay:10.37,2013-02-17 09:49:00,
2013-02-17 02:54:00,33.1,11.9,31.25,SSE,159,2.0,5.0,41,0.00,BKN,,0.00,0.0,WeatherDisplay:10.37,2013-02-17 09:54:00,
2013-02-17 02:59:00,32.9,11.7,31.25,SSE,161,2.0,3.0,41,0.00,BKN,,0.00,0.0,WeatherDisplay:10.37,2013-02-17 09:59:00,
2013-02-17 03:04:00,32.7,11.6,31.25,SSE,161,1.0,3.0,41,0.00,BKN,,0.00,0.0,WeatherDisplay:10.37,2013-02-17 10:04:00,
2013-02-17 03:09:00,32.6,11.5,31.25,SSE,161,0.0,1.0,41,0.00,BKN,,0.00,0.0,WeatherDisplay:10.37,2013-02-17 10:09:00,
2013-02-17 03:14:00,32.5,10.3,31.20,SSE,161,0.0,0.0,39,0.00,BKN,,0.00,0.0,WeatherDisplay:10.37,2013-02-17 10:14:00,
2013-02-17 03:19:00,32.5,10.3,30.74,SSE,161,1.0,2.0,39,0.00,OVC,,0.00,0.0,WeatherDisplay:10.37,2013-02-17 10:19:00,
2013-02-17 03:29:00,32.5,9.7,30.74,SSE,161,1.0,3.0,38,0.00,OVC,,0.00,0.0,WeatherDisplay:10.37,2013-02-17 10:29:00,
2013-02-17 03:34:00,32.5,9.7,30.73,SSE,161,1.0,4.0,38,0.00,OVC,,0.00,0.0,WeatherDisplay:10.37,2013-02-17 10:34:00,
2013-02-17 03:39:00,32.5,9.7,30.73,SSE,161,0.0,1.0,38,0.00,OVC,,0.00,0.0,WeatherDisplay:10.37,2013-02-17 10:39:00,
2013-02-17 03:44:00,32.5,9.7,30.82,SSE,161,1.0,4.0,38,0.00,OVC,,0.00,0.0,WeatherDisplay:10.37,2013-02-17 10:44:00,
2013-02-17 03:49:00,32.5,9.6,30.82,South,177,0.0,6.0,38,0.00,OVC,,0.00,0.0,WeatherDisplay:10.37,2013-02-17 10:49:00,
2013-02-17 03:59:00,32.4,10.2,30.36,South,180,2.0,4.0,39,0.00,OVC,,0.00,0.0,WeatherDisplay:10.37,2013-02-17 10:59:00,
2013-02-17 04:04:00,32.4,10.2,30.36,South,180,0.0,3.0,39,0.00,OVC,,0.00,0.0,WeatherDisplay:10.37,2013-02-17 11:04:00,
2013-02-17 04:09:00,32.4,10.2,30.48,South,179,0.0,4.0,39,0.00,OVC,,0.00,0.0,WeatherDisplay:10.37,2013-02-17 11:09:00,
2013-02-17 04:14:00,32.3,11.2,30.57,South,169,3.0,6.0,41,0.00,OVC,,0.00,0.0,WeatherDisplay:10.37,2013-02-17 11:14:00,
2013-02-17 04:19:00,32.3,11.2,30.65,SSE,161,1.0,4.0,41,0.00,OVC,,0.00,0.0,WeatherDisplay:10.37,2013-02-17 11:19:00,
2013-02-17 04:29:00,32.0,10.9,30.48,SSE,157,1.0,3.0,41,0.00,OVC,,0.00,0.0,WeatherDisplay:10.37,2013-02-17 11:29:00,
2013-02-17 04:34:00,31.9,10.8,30.48,SSE,158,2.0,6.0,41,0.00,OVC,,0.00,0.0,WeatherDisplay:10.37,2013-02-17 11:34:00,
2013-02-17 04:39:00,31.6,11.1,30.48,South,170,2.0,6.0,42,0.00,OVC,,0.00,0.0,WeatherDisplay:10.37,2013-02-17 11:39:00,
2013-02-17 04:44:00,31.4,10.9,30.48,South,175,1.0,3.0,42,0.00,OVC,,0.00,0.0,WeatherDisplay:10.37,2013-02-17 11:44:00,
2013-02-17 04:49:00,31.3,11.3,30.36,South,176,0.0,0.0,43,0.00,OVC,,0.00,0.0,WeatherDisplay:10.37,2013-02-17 11:49:00,
2013-02-17 04:59:00,30.9,11.0,30.67,South,176,0.0,0.0,43,0.00,OVC,,0.00,0.0,WeatherDisplay:10.37,2013-02-17 11:59:00,
2013-02-17 05:04:00,30.6,11.2,30.67,South,176,0.0,0.0,44,0.00,OVC,,0.00,0.0,WeatherDisplay:10.37,2013-02-17 12:04:00,
2013-02-17 05:09:00,30.3,10.5,30.40,South,176,0.0,0.0,43,0.00,OVC,,0.00,0.0,WeatherDisplay:10.37,2013-02-17 12:09:00,
2013-02-17 05:19:00,29.8,10.6,30.40,South,175,2.0,5.0,44,0.00,OVC,,0.00,0.0,WeatherDisplay:10.37,2013-02-17 12:19:00,
2013-02-17 05:24:00,29.5,10.2,30.40,South,175,3.0,5.0,44,0.00,OVC,,0.00,0.0,WeatherDisplay:10.37,2013-02-17 12:24:00,
2013-02-17 05:29:00,29.3,10.0,30.46,South,176,2.0,5.0,44,0.00,OVC,,0.00,0.0,WeatherDisplay:10.37,2013-02-17 12:29:00,
2013-02-17 05:39:00,28.9,9.7,30.35,South,176,3.0,6.0,44,0.00,OVC,,0.00,0.0,WeatherDisplay:10.37,2013-02-17 12:39:00,
2013-02-17 05:44:00,28.9,9.7,30.50,South,179,2.0,6.0,44,0.00,OVC,,0.00,0.0,WeatherDisplay:10.37,2013-02-17 12:44:00,
2013-02-17 05:49:00,28.8,9.6,30.50,South,179,2.0,5.0,44,0.00,OVC,,0.00,0.0,WeatherDisplay:10.37,2013-02-17 12:49:00,
2013-02-17 05:59:00,28.9,9.2,30.29,South,182,1.0,6.0,43,0.00,OVC,,0.00,0.0,WeatherDisplay:10.37,2013-02-17 12:59:00,
2013-02-17 06:04:00,28.9,9.2,30.29,South,181,2.0,5.0,43,0.00,OVC,,0.00,0.0,WeatherDisplay:10.37,2013-02-17 13:04:00,
2013-02-17 06:09:00,29.0,9.2,30.29,South,179,3.0,5.0,43,0.00,OVC,,0.00,0.0,WeatherDisplay:10.37,2013-02-17 13:09:00,
2013-02-17 06:14:00,29.0,9.3,30.29,South,181,2.0,5.0,43,0.00,OVC,,0.00,0.0,WeatherDisplay:10.37,2013-02-17 13:14:00,
2013-02-17 06:19:00,29.0,9.3,31.10,South,182,0.0,3.0,43,0.00,BKN,,0.00,0.0,WeatherDisplay:10.37,2013-02-17 13:19:00,
2013-02-17 06:29:00,28.9,9.2,31.13,South,180,1.0,3.0,43,0.00,BKN,,0.00,0.0,WeatherDisplay:10.37,2013-02-17 13:29:00,
2013-02-17 06:34:00,28.9,9.2,31.13,South,180,1.0,3.0,43,0.00,BKN,,0.00,0.0,WeatherDisplay:10.37,2013-02-17 13:34:00,
2013-02-17 06:39:00,28.9,9.2,31.13,South,180,2.0,3.0,43,0.00,BKN,,0.00,0.0,WeatherDisplay:10.37,2013-02-17 13:39:00,
2013-02-17 06:49:00,28.8,9.1,31.13,South,180,0.0,0.0,43,0.00,BKN,,0.00,0.0,WeatherDisplay:10.37,2013-02-17 13:49:00,
2013-02-17 06:54:00,28.8,9.6,31.13,South,180,0.0,4.0,44,0.00,BKN,,0.00,0.0,WeatherDisplay:10.37,2013-02-17 13:54:00,
2013-02-17 06:59:00,28.7,9.5,31.13,South,181,0.0,1.0,44,0.00,BKN,,0.00,5.0,WeatherDisplay:10.37,2013-02-17 13:59:00,
2013-02-17 07:04:00,28.6,9.4,31.13,South,179,1.0,6.0,44,0.00,BKN,,0.00,9.0,WeatherDisplay:10.37,2013-02-17 14:04:00,
2013-02-17 07:09:00,28.5,9.3,31.53,South,178,0.0,4.0,44,0.00,BKN,,0.00,14.0,WeatherDisplay:10.37,2013-02-17 14:09:00,
2013-02-17 07:14:00,28.5,9.3,31.53,SSW,195,0.0,6.0,44,0.00,BKN,,0.00,18.0,WeatherDisplay:10.37,2013-02-17 14:14:00,
2013-02-17 07:19:00,28.5,9.3,31.53,SSW,199,1.0,2.0,44,0.00,BKN,,0.00,21.0,WeatherDisplay:10.37,2013-02-17 14:19:00,
2013-02-17 07:29:00,28.7,9.0,31.53,SSW,199,2.0,4.0,43,0.00,BKN,,0.00,30.0,WeatherDisplay:10.37,2013-02-17 14:29:00,
2013-02-17 07:39:00,28.7,9.0,31.53,SSW,196,3.0,3.0,43,0.00,BKN,,0.00,30.0,WeatherDisplay:10.37,2013-02-17 14:39:00,
2013-02-17 07:44:00,28.7,9.0,31.53,SSW,196,3.0,3.0,43,0.00,BKN,,0.00,30.0,WeatherDisplay:10.37,2013-02-17 14:44:00,
2013-02-17 07:49:00,28.7,9.0,31.53,SSW,196,3.0,3.0,43,0.00,BKN,,0.00,30.0,WeatherDisplay:10.37,2013-02-17 14:49:00,
2013-02-17 07:59:00,30.0,9.6,31.53,SSW,213,3.0,4.0,42,0.00,BKN,,0.00,63.0,WeatherDisplay:10.37,2013-02-17 14:59:00,
2013-02-17 08:04:00,30.2,9.8,31.53,South,188,2.0,5.0,42,0.00,BKN,,0.00,67.0,WeatherDisplay:10.37,2013-02-17 15:04:00,
2013-02-17 08:09:00,30.5,9.6,31.51,SSW,202,3.0,5.0,41,0.00,BKN,,0.00,67.0,WeatherDisplay:10.37,2013-02-17 15:09:00,
2013-02-17 08:14:00,30.8,9.3,31.51,South,190,3.0,5.0,40,0.00,BKN,,0.00,72.0,WeatherDisplay:10.37,2013-02-17 15:14:00,
2013-02-17 08:19:00,31.1,9.6,31.51,South,177,3.0,6.0,40,0.00,BKN,,0.00,76.0,WeatherDisplay:10.37,2013-02-17 15:19:00,
2013-02-17 08:29:00,31.5,11.0,31.04,SSW,195,3.0,6.0,42,0.00,BKN,,0.00,88.0,WeatherDisplay:10.37,2013-02-17 15:29:00,
2013-02-17 08:34:00,31.6,10.6,31.04,South,176,5.0,8.0,41,0.00,BKN,,0.00,111.0,WeatherDisplay:10.37,2013-02-17 15:34:00,
2013-02-17 08:39:00,32.0,9.8,31.04,South,183,5.0,8.0,39,0.00,BKN,,0.00,167.0,WeatherDisplay:10.37,2013-02-17 15:39:00,
2013-02-17 08:44:00,32.5,9.6,31.04,South,177,5.0,7.0,38,0.00,BKN,,0.00,241.0,WeatherDisplay:10.37,2013-02-17 15:44:00,
2013-02-17 08:49:00,33.2,9.7,31.04,South,174,5.0,9.0,37,0.00,BKN,,0.00,181.0,WeatherDisplay:10.37,2013-02-17 15:49:00,
2013-02-17 08:54:00,33.8,10.9,29.96,South,174,3.0,6.0,38,0.00,BKN,,0.00,134.0,WeatherDisplay:10.37,2013-02-17 15:54:00,
2013-02-17 08:59:00,34.8,9.3,29.89,South,176,2.0,13.0,34,0.00,BKN,,0.00,155.0,WeatherDisplay:10.37,2013-02-17 15:59:00,
2013-02-17 09:04:00,35.5,9.2,29.89,SSE,168,2.0,6.0,33,0.00,BKN,,0.00,162.0,WeatherDisplay:10.37,2013-02-17 16:04:00,
2013-02-17 09:14:00,37.5,8.0,29.76,SSE,168,7.0,13.0,29,0.00,BKN,,0.00,232.0,WeatherDisplay:10.37,2013-02-17 16:14:00,
2013-02-17 09:19:00,38.7,8.3,30.13,SSE,165,7.0,12.0,28,0.00,BKN,,0.00,327.0,WeatherDisplay:10.37,2013-02-17 16:19:00,
2013-02-17 09:24:00,39.7,9.2,30.13,SSE,161,5.0,9.0,28,0.00,BKN,,0.00,294.0,WeatherDisplay:10.37,2013-02-17 16:24:00,
2013-02-17 09:29:00,40.7,9.2,30.14,SSE,164,3.0,9.0,27,0.00,BKN,,0.00,281.0,WeatherDisplay:10.37,2013-02-17 16:29:00,
2013-02-17 09:34:00,41.7,9.3,30.14,SSE,161,6.0,12.0,26,0.00,BKN,,0.00,230.0,WeatherDisplay:10.37,2013-02-17 16:34:00,
2013-02-17 09:39:00,42.6,10.1,31.86,SSE,164,3.0,10.0,26,0.00,BKN,,0.00,279.0,WeatherDisplay:10.37,2013-02-17 16:39:00,
2013-02-17 09:44:00,43.4,9.8,31.86,South,173,3.0,8.0,25,0.00,BKN,,0.00,338.0,WeatherDisplay:10.37,2013-02-17 16:44:00,
2013-02-17 09:49:00,44.1,10.5,31.86,SSE,163,5.0,7.0,25,0.00,BKN,,0.00,378.0,WeatherDisplay:10.37,2013-02-17 16:49:00,
2013-02-17 09:59:00,45.9,10.1,31.86,South,174,3.0,5.0,23,0.00,BKN,,0.00,438.0,WeatherDisplay:10.37,2013-02-17 16:59:00,
2013-02-17 10:04:00,46.8,9.9,31.86,South,169,3.0,6.0,22,0.00,BKN,,0.00,429.0,WeatherDisplay:10.37,2013-02-17 17:04:00,
2013-02-17 10:09:00,47.8,9.7,31.86,SSE,163,1.0,6.0,21,0.00,BKN,,0.00,380.0,WeatherDisplay:10.37,2013-02-17 17:09:00,
2013-02-17 10:19:00,49.5,10.0,31.03,SSE,155,1.0,7.0,20,0.00,BKN,,0.00,545.0,WeatherDisplay:10.37,2013-02-17 17:19:00,
2013-02-17 10:29:00,51.6,9.4,31.03,SSE,160,2.0,8.0,18,0.00,BKN,,0.00,360.0,WeatherDisplay:10.37,2013-02-17 17:29:00,
2013-02-17 10:39:00,53.4,8.3,31.03,South,171,5.0,9.0,16,0.00,BKN,,0.00,531.0,WeatherDisplay:10.37,2013-02-17 17:39:00,
2013-02-17 10:44:00,54.4,9.1,31.03,SSE,167,3.0,10.0,16,0.00,BKN,,0.00,664.0,WeatherDisplay:10.37,2013-02-17 17:44:00,
2013-02-17 10:49:00,55.5,8.5,31.03,SSE,161,5.0,9.0,15,0.00,BKN,,0.00,557.0,WeatherDisplay:10.37,2013-02-17 17:49:00,
2013-02-17 10:54:00,56.5,7.7,31.03,SSE,155,7.0,13.0,14,0.00,BKN,,0.00,510.0,WeatherDisplay:10.37,2013-02-17 17:54:00,
2013-02-17 10:59:00,57.1,8.2,31.03,SSE,164,6.0,14.0,14,0.00,BKN,,0.00,540.0,WeatherDisplay:10.37,2013-02-17 17:59:00,
2013-02-17 11:04:00,57.6,8.7,31.03,SSE,148,5.0,9.0,14,0.00,BKN,,0.00,650.0,WeatherDisplay:10.37,2013-02-17 18:04:00,
2013-02-17 11:09:00,58.2,7.5,31.03,SE,139,5.0,12.0,13,0.00,BKN,,0.00,682.0,WeatherDisplay:10.37,2013-02-17 18:09:00,
2013-02-17 11:14:00,59.0,8.1,31.03,SSE,162,3.0,10.0,13,0.00,BKN,,0.00,707.0,WeatherDisplay:10.37,2013-02-17 18:14:00,
2013-02-17 11:19:00,59.8,8.8,31.03,South,178,5.0,10.0,13,0.00,BKN,,0.00,714.0,WeatherDisplay:10.37,2013-02-17 18:19:00,
2013-02-17 11:24:00,60.5,9.4,31.03,South,176,6.0,10.0,13,0.00,BKN,,0.00,719.0,WeatherDisplay:10.37,2013-02-17 18:24:00,
2013-02-17 11:29:00,61.2,9.9,31.03,SSE,148,5.0,9.0,13,0.00,BKN,,0.00,710.0,WeatherDisplay:10.37,2013-02-17 18:29:00,
2013-02-17 11:39:00,61.7,8.5,31.03,SSW,213,12.0,20.0,12,0.00,BKN,,0.00,724.0,WeatherDisplay:10.37,2013-02-17 18:39:00,
2013-02-17 11:49:00,61.8,6.6,31.03,West,272,9.0,18.0,11,0.00,BKN,,0.00,387.0,WeatherDisplay:10.37,2013-02-17 18:49:00,
2013-02-17 11:59:00,62.3,7.0,31.03,WNW,286,6.0,17.0,11,0.00,BKN,,0.00,601.0,WeatherDisplay:10.37,2013-02-17 18:59:00,
2013-02-17 12:04:00,62.4,5.0,31.32,WSW,257,5.0,17.0,10,0.00,BKN,,0.00,652.0,WeatherDisplay:10.37,2013-02-17 19:04:00,
2013-02-17 12:09:00,62.2,4.9,31.32,West,268,6.0,16.0,10,0.00,BKN,,0.00,489.0,WeatherDisplay:10.37,2013-02-17 19:09:00,
2013-02-17 12:19:00,61.9,6.8,31.32,NW,305,7.0,13.0,11,0.00,BKN,,0.00,577.0,WeatherDisplay:10.37,2013-02-17 19:19:00,
2013-02-17 12:24:00,62.0,6.8,31.32,WNW,300,5.0,14.0,11,0.00,BKN,,0.00,594.0,WeatherDisplay:10.37,2013-02-17 19:24:00,
2013-02-17 12:29:00,62.2,7.0,31.32,West,265,7.0,12.0,11,0.00,BKN,,0.00,628.0,WeatherDisplay:10.37,2013-02-17 19:29:00,
2013-02-17 12:34:00,62.3,7.0,31.32,West,259,6.0,12.0,11,0.00,BKN,,0.00,464.0,WeatherDisplay:10.37,2013-02-17 19:34:00,
2013-02-17 12:44:00,62.5,7.2,29.99,West,265,3.0,8.0,11,0.00,BKN,,0.00,652.0,WeatherDisplay:10.37,2013-02-17 19:44:00,
2013-02-17 12:49:00,62.9,7.5,31.26,West,264,5.0,7.0,11,0.00,BKN,,0.00,443.0,WeatherDisplay:10.37,2013-02-17 19:49:00,
2013-02-17 12:54:00,63.2,7.7,31.26,West,270,2.0,9.0,11,0.00,BKN,,0.00,366.0,WeatherDisplay:10.37,2013-02-17 19:54:00,
2013-02-17 12:59:00,63.2,7.7,31.26,WSW,253,5.0,10.0,11,0.00,BKN,,0.00,302.0,WeatherDisplay:10.37,2013-02-17 19:59:00,
2013-02-17 13:04:00,63.1,7.6,31.50,WSW,243,3.0,8.0,11,0.00,BKN,,0.00,345.0,WeatherDisplay:10.37,2013-02-17 20:04:00,
2013-02-17 13:09:00,62.7,7.4,31.68,WSW,253,3.0,12.0,11,0.00,BKN,,0.00,348.0,WeatherDisplay:10.37,2013-02-17 20:09:00,
2013-02-17 13:14:00,62.7,7.3,31.68,WSW,250,6.0,6.0,11,0.00,BKN,,0.00,348.0,WeatherDisplay:10.37,2013-02-17 20:14:00,
2013-02-17 13:19:00,62.7,7.3,31.68,WSW,243,6.0,6.0,11,0.00,BKN,,0.00,348.0,WeatherDisplay:10.37,2013-02-17 20:19:00,
2013-02-17 13:29:00,62.2,7.0,31.65,West,263,2.0,9.0,11,0.00,BKN,,0.00,367.0,WeatherDisplay:10.37,2013-02-17 20:29:00,
2013-02-17 13:34:00,62.2,7.0,31.65,West,266,2.0,9.0,11,0.00,BKN,,0.00,302.0,WeatherDisplay:10.37,2013-02-17 20:34:00,
2013-02-17 13:39:00,62.2,7.0,31.65,WNW,295,3.0,6.0,11,0.00,BKN,,0.00,334.0,WeatherDisplay:10.37,2013-02-17 20:39:00,
2013-02-17 13:44:00,62.2,7.0,31.65,NW,313,3.0,3.0,11,0.00,BKN,,0.00,334.0,WeatherDisplay:10.37,2013-02-17 20:44:00,
2013-02-17 13:49:00,62.2,7.0,31.65,NW,313,3.0,3.0,11,0.00,BKN,,0.00,334.0,WeatherDisplay:10.37,2013-02-17 20:49:00,
2013-02-17 13:54:00,62.2,7.0,31.65,NW,313,3.0,3.0,11,0.00,BKN,,0.00,334.0,WeatherDisplay:10.37,2013-02-17 20:54:00,
2013-02-17 13:59:00,62.2,7.0,31.65,NW,313,3.0,3.0,11,0.00,BKN,,0.00,334.0,WeatherDisplay:10.37,2013-02-17 20:59:00,
2013-02-17 14:04:00,62.2,7.0,31.65,NW,313,3.0,3.0,11,0.00,BKN,,0.00,334.0,WeatherDisplay:10.37,2013-02-17 21:04:00,
2013-02-17 14:09:00,62.2,7.0,31.65,NW,313,3.0,3.0,11,0.00,BKN,,0.00,334.0,WeatherDisplay:10.37,2013-02-17 21:09:00,
2013-02-17 14:14:00,62.2,7.0,31.65,NW,313,3.0,3.0,11,0.00,BKN,,0.00,334.0,WeatherDisplay:10.37,2013-02-17 21:14:00,
2013-02-17 14:19:00,62.2,7.0,31.65,NW,313,3.0,3.0,11,0.00,BKN,,0.00,334.0,WeatherDisplay:10.37,2013-02-17 21:19:00,
2013-02-17 14:24:00,62.2,7.0,31.65,NW,313,3.0,3.0,11,0.00,BKN,,0.00,334.0,WeatherDisplay:10.37,2013-02-17 21:24:00,
2013-02-17 14:29:00,62.2,7.0,31.65,NW,313,3.0,3.0,11,0.00,BKN,,0.00,334.0,WeatherDisplay:10.37,2013-02-17 21:29:00,
2013-02-17 14:34:00,62.2,7.0,31.65,NW,313,3.0,3.0,11,0.00,BKN,,0.00,334.0,WeatherDisplay:10.37,2013-02-17 21:34:00,
2013-02-17 14:39:00,62.2,7.0,31.65,NW,313,3.0,3.0,11,0.00,BKN,,0.00,334.0,WeatherDisplay:10.37,2013-02-17 21:39:00,
2013-02-17 14:49:00,62.2,7.0,31.65,NW,313,3.0,3.0,11,0.00,BKN,,0.00,334.0,WeatherDisplay:10.37,2013-02-17 21:49:00,
2013-02-17 14:59:00,62.2,7.0,31.65,NW,313,3.0,3.0,11,0.00,BKN,,0.00,334.0,WeatherDisplay:10.37,2013-02-17 21:59:00,
2013-02-17 15:04:00,62.2,7.0,31.65,NW,313,3.0,3.0,11,0.00,BKN,,0.00,334.0,WeatherDisplay:10.37,2013-02-17 22:04:00,
2013-02-17 15:09:00,62.2,7.0,31.65,NW,313,3.0,3.0,11,0.00,BKN,,0.00,334.0,WeatherDisplay:10.37,2013-02-17 22:09:00,
2013-02-17 15:14:00,62.2,7.0,31.65,NW,313,3.0,3.0,11,0.00,BKN,,0.00,334.0,WeatherDisplay:10.37,2013-02-17 22:14:00,
2013-02-17 15:19:00,62.2,7.0,31.65,NW,313,3.0,3.0,11,0.00,BKN,,0.00,334.0,WeatherDisplay:10.37,2013-02-17 22:19:00,
2013-02-17 15:29:00,62.2,7.0,31.65,NW,313,3.0,3.0,11,0.00,BKN,,0.00,334.0,WeatherDisplay:10.37,2013-02-17 22:29:00,
2013-02-17 15:39:00,62.2,7.0,31.65,NW,313,3.0,3.0,11,0.00,BKN,,0.00,334.0,WeatherDisplay:10.37,2013-02-17 22:39:00,
2013-02-17 15:44:00,62.2,7.0,31.65,NW,313,3.0,3.0,11,0.00,BKN,,0.00,334.0,WeatherDisplay:10.37,2013-02-17 22:44:00,
2013-02-17 15:49:00,62.2,7.0,31.65,NW,313,3.0,3.0,11,0.00,BKN,,0.00,334.0,WeatherDisplay:10.37,2013-02-17 22:49:00,
2013-02-17 15:54:00,62.2,7.0,31.65,NW,313,3.0,3.0,11,0.00,BKN,,0.00,334.0,WeatherDisplay:10.37,2013-02-17 22:54:00,
2013-02-17 15:59:00,62.2,7.0,31.65,NW,313,3.0,3.0,11,0.00,BKN,,0.00,334.0,WeatherDisplay:10.37,2013-02-17 22:59:00,
2013-02-17 16:04:00,62.2,7.0,31.65,NW,313,3.0,3.0,11,0.00,BKN,,0.00,334.0,WeatherDisplay:10.37,2013-02-17 23:04:00,
2013-02-17 16:09:00,62.2,7.0,31.65,NW,313,3.0,3.0,11,0.00,BKN,,0.00,334.0,WeatherDisplay:10.37,2013-02-17 23:09:00,
2013-02-17 16:14:00,62.2,7.0,31.65,NW,313,3.0,3.0,11,0.00,BKN,,0.00,334.0,WeatherDisplay:10.37,2013-02-17 23:14:00,
2013-02-17 16:19:00,62.2,7.0,31.65,NW,313,3.0,3.0,11,0.00,BKN,,0.00,334.0,WeatherDisplay:10.37,2013-02-17 23:19:00,
2013-02-17 16:24:00,62.2,7.0,31.65,NW,313,3.0,3.0,11,0.00,BKN,,0.00,334.0,WeatherDisplay:10.37,2013-02-17 23:24:00,
2013-02-17 16:29:00,62.2,7.0,31.65,NW,313,3.0,3.0,11,0.00,BKN,,0.00,334.0,WeatherDisplay:10.37,2013-02-17 23:29:00,
2013-02-17 16:34:00,62.2,7.0,31.65,NW,313,3.0,3.0,11,0.00,BKN,,0.00,334.0,WeatherDisplay:10.37,2013-02-17 23:34:00,
2013-02-17 16:39:00,62.2,7.0,31.65,NW,313,3.0,3.0,11,0.00,BKN,,0.00,334.0,WeatherDisplay:10.37,2013-02-17 23:39:00,
2013-02-17 16:49:00,62.2,7.0,31.65,NW,313,3.0,3.0,11,0.00,BKN,,0.00,334.0,WeatherDisplay:10.37,2013-02-17 23:49:00,
2013-02-17 16:54:00,62.2,7.0,31.65,NW,313,3.0,3.0,11,0.00,BKN,,0.00,334.0,WeatherDisplay:10.37,2013-02-17 23:54:00,
2013-02-17 16:59:00,62.2,7.0,31.65,NW,313,3.0,3.0,11,0.00,BKN,,0.00,334.0,WeatherDisplay:10.37,2013-02-17 23:59:00,
2013-02-17 17:04:00,62.2,7.0,31.65,NW,313,3.0,3.0,11,0.00,BKN,,0.00,334.0,WeatherDisplay:10.37,2013-02-18 00:04:00,
2013-02-17 17:09:00,62.2,7.0,31.65,NW,313,3.0,3.0,11,0.00,BKN,,0.00,334.0,WeatherDisplay:10.37,2013-02-18 00:09:00,
2013-02-17 17:14:00,62.2,7.0,31.65,NW,313,3.0,3.0,11,0.00,BKN,,0.00,334.0,WeatherDisplay:10.37,2013-02-18 00:14:00,
2013-02-17 17:19:00,62.2,7.0,31.65,NW,313,3.0,3.0,11,0.00,BKN,,0.00,334.0,WeatherDisplay:10.37,2013-02-18 00:19:00,
2013-02-17 17:24:00,62.2,7.0,31.65,NW,313,3.0,3.0,11,0.00,BKN,,0.00,334.0,WeatherDisplay:10.37,2013-02-18 00:24:00,
2013-02-17 17:29:00,62.2,7.0,31.65,NW,313,3.0,3.0,11,0.00,BKN,,0.00,334.0,WeatherDisplay:10.37,2013-02-18 00:29:00,
2013-02-17 17:34:00,62.2,7.0,31.65,NW,313,3.0,3.0,11,0.00,BKN,,0.00,334.0,WeatherDisplay:10.37,2013-02-18 00:34:00,
2013-02-17 17:39:00,62.2,7.0,31.65,NW,313,3.0,3.0,11,0.00,BKN,,0.00,334.0,WeatherDisplay:10.37,2013-02-18 00:39:00,
2013-02-17 17:44:00,62.2,7.0,31.65,NW,313,3.0,3.0,11,0.00,BKN,,0.00,334.0,WeatherDisplay:10.37,2013-02-18 00:44:00,
2013-02-17 17:54:00,62.2,7.0,31.65,NW,313,3.0,3.0,11,0.00,BKN,,0.00,334.0,WeatherDisplay:10.37,2013-02-18 00:54:00,
2013-02-17 17:59:00,62.2,7.0,31.65,NW,313,3.0,3.0,11,0.00,BKN,,0.00,0.0,WeatherDisplay:10.37,2013-02-18 00:59:00,
2013-02-17 18:04:00,62.2,7.0,31.65,NW,313,3.0,3.0,11,0.00,BKN,,0.00,0.0,WeatherDisplay:10.37,2013-02-18 01:04:00,
2013-02-17 18:09:00,62.2,7.0,31.65,NW,313,3.0,3.0,11,0.00,BKN,,0.00,0.0,WeatherDisplay:10.37,2013-02-18 01:09:00,
2013-02-17 18:19:00,62.2,7.0,31.65,NW,313,3.0,3.0,11,0.00,BKN,,0.00,0.0,WeatherDisplay:10.37,2013-02-18 01:19:00,
2013-02-17 18:29:00,62.2,7.0,31.65,NW,313,3.0,3.0,11,0.00,BKN,,0.00,0.0,WeatherDisplay:10.37,2013-02-18 01:29:00,
2013-02-17 18:34:00,62.2,7.0,31.65,NW,313,3.0,3.0,11,0.00,BKN,,0.00,0.0,WeatherDisplay:10.37,2013-02-18 01:34:00,
2013-02-17 18:39:00,62.2,7.0,31.65,NW,313,3.0,3.0,11,0.00,BKN,,0.00,0.0,WeatherDisplay:10.37,2013-02-18 01:39:00,
2013-02-17 18:49:00,62.2,7.0,31.65,NW,313,3.0,3.0,11,0.00,BKN,,0.00,0.0,WeatherDisplay:10.37,2013-02-18 01:49:00,
2013-02-17 18:59:00,62.2,7.0,31.65,NW,313,3.0,3.0,11,0.00,BKN,,0.00,0.0,WeatherDisplay:10.37,2013-02-18 01:59:00,
2013-02-17 19:04:00,62.2,7.0,31.65,NW,313,3.0,3.0,11,0.00,BKN,,0.00,0.0,WeatherDisplay:10.37,2013-02-18 02:04:00,
2013-02-17 19:09:00,62.2,7.0,31.65,NW,313,3.0,3.0,11,0.00,BKN,,0.00,0.0,WeatherDisplay:10.37,2013-02-18 02:09:00,
2013-02-17 19:19:00,62.2,7.0,31.65,NW,313,3.0,3.0,11,0.00,SCT,,0.00,0.0,WeatherDisplay:10.37,2013-02-18 02:19:00,
2013-02-17 19:29:00,62.2,7.0,31.65,NW,313,3.0,3.0,11,0.00,SCT,,0.00,0.0,WeatherDisplay:10.37,2013-02-18 02:29:00,
2013-02-17 19:34:00,62.2,7.0,31.65,NW,313,3.0,3.0,11,0.00,SCT,,0.00,0.0,WeatherDisplay:10.37,2013-02-18 02:34:00,
2013-02-17 19:39:00,62.2,7.0,31.65,NW,313,3.0,3.0,11,0.00,SCT,,0.00,0.0,WeatherDisplay:10.37,2013-02-18 02:39:00,
2013-02-17 19:44:00,62.2,7.0,31.65,NW,313,3.0,3.0,11,0.00,SCT,,0.00,0.0,WeatherDisplay:10.37,2013-02-18 02:44:00,
2013-02-17 19:49:00,62.2,7.0,31.65,NW,313,3.0,3.0,11,0.00,SCT,,0.00,0.0,WeatherDisplay:10.37,2013-02-18 02:49:00,
2013-02-17 19:54:00,62.2,7.0,31.65,NW,313,3.0,3.0,11,0.00,SCT,,0.00,0.0,WeatherDisplay:10.37,2013-02-18 02:54:00,
2013-02-17 19:59:00,62.2,7.0,31.65,NW,313,3.0,3.0,11,0.00,SCT,,0.00,0.0,WeatherDisplay:10.37,2013-02-18 02:59:00,
2013-02-17 20:04:00,62.2,7.0,31.65,NW,313,3.0,3.0,11,0.00,SCT,,0.00,0.0,WeatherDisplay:10.37,2013-02-18 03:04:00,
2013-02-17 20:09:00,62.2,7.0,31.65,NW,313,3.0,3.0,11,0.00,SCT,,0.00,0.0,WeatherDisplay:10.37,2013-02-18 03:09:00,
2013-02-17 20:14:00,62.2,7.0,31.65,NW,313,3.0,3.0,11,0.00,SCT,,0.00,0.0,WeatherDisplay:10.37,2013-02-18 03:14:00,
2013-02-17 20:19:00,62.2,7.0,31.65,NW,313,3.0,3.0,11,0.00,SCT,,0.00,0.0,WeatherDisplay:10.37,2013-02-18 03:19:00,
2013-02-17 20:24:00,62.2,7.0,31.65,NW,313,3.0,3.0,11,0.00,SCT,,0.00,0.0,WeatherDisplay:10.37,2013-02-18 03:24:00,
2013-02-17 20:29:00,62.2,7.0,31.65,NW,313,3.0,3.0,11,0.00,SCT,,0.00,0.0,WeatherDisplay:10.37,2013-02-18 03:29:00,
2013-02-17 20:39:00,62.2,7.0,31.65,NW,313,3.0,3.0,11,0.00,SCT,,0.00,0.0,WeatherDisplay:10.37,2013-02-18 03:39:00,
2013-02-17 20:44:00,62.2,7.0,31.65,NW,313,3.0,3.0,11,0.00,SCT,,0.00,0.0,WeatherDisplay:10.37,2013-02-18 03:44:00,
2013-02-17 20:49:00,62.2,7.0,31.65,NW,313,3.0,3.0,11,0.00,SCT,,0.00,0.0,WeatherDisplay:10.37,2013-02-18 03:49:00,
2013-02-17 20:54:00,62.2,7.0,31.65,NW,313,3.0,3.0,11,0.00,SCT,,0.00,0.0,WeatherDisplay:10.37,2013-02-18 03:54:00,
2013-02-17 20:59:00,62.2,7.0,31.65,NW,313,3.0,3.0,11,0.00,SCT,,0.00,0.0,WeatherDisplay:10.37,2013-02-18 03:59:00,
2013-02-17 21:04:00,62.2,7.0,31.65,NW,313,3.0,3.0,11,0.00,SCT,,0.00,0.0,WeatherDisplay:10.37,2013-02-18 04:04:00,
2013-02-17 21:09:00,62.2,7.0,31.65,NW,313,3.0,3.0,11,0.00,SCT,,0.00,0.0,WeatherDisplay:10.37,2013-02-18 04:09:00,
2013-02-17 21:14:00,62.2,7.0,31.65,NW,313,3.0,3.0,11,0.00,SCT,,0.00,0.0,WeatherDisplay:10.37,2013-02-18 04:14:00,
2013-02-17 21:19:00,62.2,7.0,31.65,NW,313,3.0,3.0,11,0.00,SCT,,0.00,0.0,WeatherDisplay:10.37,2013-02-18 04:19:00,
2013-02-17 21:24:00,62.2,7.0,31.65,NW,313,3.0,3.0,11,0.00,SCT,,0.00,0.0,WeatherDisplay:10.37,2013-02-18 04:24:00,
2013-02-17 21:29:00,62.2,7.0,31.65,NW,313,3.0,3.0,11,0.00,SCT,,0.00,0.0,WeatherDisplay:10.37,2013-02-18 04:29:00,
2013-02-17 21:34:00,62.2,7.0,31.65,NW,313,3.0,3.0,11,0.00,SCT,,0.00,0.0,WeatherDisplay:10.37,2013-02-18 04:34:00,
2013-02-17 21:39:00,62.2,7.0,31.65,NW,313,3.0,3.0,11,0.00,SCT,,0.00,0.0,WeatherDisplay:10.37,2013-02-18 04:39:00,
2013-02-17 21:49:00,62.2,7.0,31.65,NW,313,3.0,3.0,11,0.00,SCT,,0.00,0.0,WeatherDisplay:10.37,2013-02-18 04:49:00,
2013-02-17 21:54:00,62.2,7.0,31.65,NW,313,3.0,3.0,11,0.00,SCT,,0.00,0.0,WeatherDisplay:10.37,2013-02-18 04:54:00,
2013-02-17 21:59:00,62.2,7.0,31.65,NW,313,3.0,3.0,11,0.00,SCT,,0.00,0.0,WeatherDisplay:10.37,2013-02-18 04:59:00,
2013-02-17 22:04:00,62.2,7.0,31.65,NW,313,3.0,3.0,11,0.00,SCT,,0.00,0.0,WeatherDisplay:10.37,2013-02-18 05:04:00,
2013-02-17 22:09:00,62.2,7.0,31.65,NW,322,2.0,3.0,11,0.00,SCT,,0.00,0.0,WeatherDisplay:10.37,2013-02-18 05:09:00,
2013-02-17 22:14:00,34.1,15.9,31.45,NNE,20,0.0,0.0,47,0.00,SCT,,0.00,0.0,WeatherDisplay:10.37,2013-02-18 05:14:00,
2013-02-17 22:19:00,33.9,15.8,31.45,East,92,1.0,3.0,47,0.00,SCT,,0.00,0.0,WeatherDisplay:10.37,2013-02-18 05:19:00,
2013-02-17 22:29:00,33.4,15.8,31.69,SSE,157,0.0,4.0,48,0.00,SCT,,0.00,0.0,WeatherDisplay:10.37,2013-02-18 05:29:00,
2013-02-17 22:39:00,33.0,16.3,31.88,SSE,157,0.0,2.0,50,0.00,SCT,,0.00,0.0,WeatherDisplay:10.37,2013-02-18 05:39:00,
2013-02-17 22:44:00,32.8,16.2,30.61,SSE,156,0.0,2.0,50,0.00,SCT,,0.00,0.0,WeatherDisplay:10.37,2013-02-18 05:44:00,
2013-02-17 22:49:00,32.6,16.0,30.61,SSE,156,0.0,0.0,50,0.00,SCT,,0.00,0.0,WeatherDisplay:10.37,2013-02-18 05:49:00,
2013-02-17 22:54:00,32.6,16.0,30.61,SSE,156,0.0,1.0,50,0.00,SCT,,0.00,0.0,WeatherDisplay:10.37,2013-02-18 05:54:00,
2013-02-17 22:59:00,32.4,15.8,30.61,SSE,155,0.0,4.0,50,0.00,SCT,,0.00,0.0,WeatherDisplay:10.37,2013-02-18 05:59:00,
2013-02-17 23:04:00,32.2,15.6,30.61,SE,145,0.0,3.0,50,0.00,SCT,,0.00,0.0,WeatherDisplay:10.37,2013-02-18 06:04:00,
2013-02-17 23:09:00,32.1,15.5,30.61,SE,143,0.0,0.0,50,0.00,SCT,,0.00,0.0,WeatherDisplay:10.37,2013-02-18 06:09:00,
2013-02-17 23:19:00,31.8,14.8,30.61,SE,143,0.0,0.0,49,0.00,SCT,,0.00,0.0,WeatherDisplay:10.37,2013-02-18 06:19:00,
2013-02-17 23:24:00,31.6,14.6,30.61,SE,143,0.0,0.0,49,0.00,SCT,,0.00,0.0,WeatherDisplay:10.37,2013-02-18 06:24:00,
2013-02-17 23:34:00,31.4,13.9,30.61,SE,143,0.0,0.0,48,0.00,BKN,,0.00,0.0,WeatherDisplay:10.37,2013-02-18 06:34:00,
2013-02-17 23:39:00,31.3,13.8,31.50,SE,139,1.0,4.0,48,0.00,BKN,,0.00,0.0,WeatherDisplay:10.37,2013-02-18 06:39:00,
2013-02-17 23:44:00,31.3,13.4,31.50,SE,132,0.0,3.0,47,0.00,BKN,,0.00,0.0,WeatherDisplay:10.37,2013-02-18 06:44:00,
2013-02-17 23:49:00,31.4,13.9,31.50,East,93,5.0,14.0,48,0.00,BKN,,0.00,0.0,WeatherDisplay:10.37,2013-02-18 06:49:00,
2013-02-17 23:59:00,31.4,17.1,31.07,East,98,2.0,6.0,55,0.00,BKN,,0.00,0.0,WeatherDisplay:10.37,2013-02-18 06:59:00,